Location: Caltech
(34.1382°N, 118.1253°W)
Time: 04:05:13
(UTC-07:00)

USA 129 - Visible Passes

Search period start: 18 April 2014 00:00
Search period end: 28 April 2014 00:00
Orbit: 242 x 679 km, 97.5° (Epoch: 16 April)

Date Brightness Start Highest point End Pass type
(mag) Time Alt. Az. Time Alt. Az. Time Alt. Az.
18 Apr 5.5 20:34:39 13° ENE 20:35:03 13° ENE 20:37:12 10° NE visible
18 Apr 4.9 22:08:30 39° NW 22:08:30 39° NW 22:11:47 10° NNW visible
19 Apr 3.9 21:36:13 55° NNE 21:36:13 55° NNE 21:40:05 10° N visible
20 Apr 4.7 21:03:50 28° ENE 21:03:50 28° ENE 21:07:43 10° NNE visible
20 Apr 5.9 22:37:41 22° WNW 22:37:41 22° WNW 22:40:16 10° NW visible
21 Apr 5.6 20:31:22 12° ENE 20:32:10 13° ENE 20:34:08 10° NE visible
21 Apr 4.5 22:05:12 49° WNW 22:05:12 49° WNW 22:08:58 10° NNW visible
22 Apr 3.8 21:32:38 57° NE 21:32:38 57° NE 21:36:54 10° N visible
22 Apr 6.6 23:06:27 11° WNW 23:06:27 11° WNW 23:06:53 10° WNW visible
23 Apr 4.8 20:59:58 25° ENE 21:00:19 26° ENE 21:04:08 10° NNE visible
23 Apr 5.6 22:33:47 25° WNW 22:33:47 25° WNW 22:36:55 10° NW visible
24 Apr 5.7 20:27:13 11° E 20:28:22 12° ENE 20:29:56 10° NE visible
24 Apr 4.1 22:01:02 60° WNW 22:01:02 60° WNW 22:05:12 10° NNW visible
25 Apr 3.9 21:28:10 52° ENE 21:28:12 52° ENE 21:32:44 10° N visible
25 Apr 6.4 23:01:59 13° W 23:01:59 13° W 23:03:27 10° WNW visible
26 Apr 5.0 20:55:14 22° E 20:55:55 23° ENE 20:59:33 10° NNE visible
26 Apr 5.3 22:29:02 30° W 22:29:02 30° W 22:32:37 10° NW visible
27 Apr 5.9 20:23:17 10° ENE 20:23:40 10° ENE 20:24:03 10° ENE visible
27 Apr 3.8 21:55:59 74° WNW 21:55:59 74° WNW 22:00:28 10° NNW visible
